Location: Cosy Dell
(34.2789°N, 117.4537°W)
Time: 20:44:47
(UTC+00:00)

Landsat 5 - Pass Details

Date: 14 July 2020
Orbit: 529 x 654 km, 98.2° (Epoch: 13 August)

Event Time Altitude Azimuth Distance (km) Brightness Sun altitude
Exits shadow 11:07:11 - 153° (SSE) 2,770 6.7 -18.0°
Rises 11:07:16 0° 153° (SSE) 2,739 6.7 -18.0°
Reaches altitude 10° 11:09:28 10° 147° (SSE) 1,829 5.9 -17.6°
Maximum altitude 11:13:14 45° 74° (ENE) 742 4.4 -17.1°
Drops below altitude 10° 11:16:56 10° 1° (N) 1,795 6.5 -16.5°
Sets 11:19:05 0° 355° (N) 2,681 7.4 -16.2°
